EHI
90 88 79 63 50 49 56 61 55 36 17 7 4 2 1 0 0 0 0 0 0 0 0 0 0 0 1 1 1 0 0 1 4 7 11 16 26 37 40 35 24 11 5
83 82 73 54 39 37 42 45 37 20 8 3 2 1 0 0 0 0 0 0 0 0 0 0 0 0 0 0 0 0 0 0 1 3 5 7 16 26 31 34 31 21 16
71 68 53 33 21 18 19 19 14 6 2 1 1 1 0 0 0 0 1 2 1 0 0 0 0 0 0 0 0 0 0 0 0 0 0 1 5 11 20 28 29 28 29
56 49 34 18 9 7 7 6 6 9 13 14 13 9 3 0 0 0 2 4 2 0 0 0 0 0 0 0 0 0 0 0 0 0 0 0 1 3 9 15 17 20 25
41 37 28 18 12 8 5 4 8 21 33 35 31 21 8 1 0 0 2 3 2 0 0 0 0 0 0 0 0 0 0 0 0 0 0 1 2 1 2 4 8 12 14
31 30 26 22 17 10 4 3 9 25 41 44 38 28 16 8 4 1 0 0 0 0 0 0 0 0 0 0 0 0 0 0 0 0 0 0 1 1 1 1 4 10 15
20 18 16 14 11 7 4 6 16 30 41 44 43 38 29 19 9 3 0 0 0 0 0 0 0 0 0 0 0 0 0 0 0 0 0 0 0 1 2 3 3 10 18
6 5 4 4 3 3 6 15 31 46 54 57 61 61 51 34 18 8 3 0 0 0 0 0 0 0 0 0 0 0 0 0 0 0 0 0 0 1 3 5 7 13 19
0 0 0 0 0 2 6 15 29 45 55 63 73 78 72 57 36 20 9 2 0 0 0 0 0 0 0 0 0 0 0 0 0 0 0 0 0 1 2 6 11 17 22
0 0 0 0 0 1 3 6 11 20 29 40 54 65 72 71 58 38 20 9 3 0 0 0 0 0 0 0 0 0 0 0 0 0 0 0 0 1 2 7 14 23 30
0 0 0 0 0 0 0 0 1 2 5 11 19 30 43 54 55 44 28 14 6 2 1 0 0 0 0 0 0 0 0 0 0 0 0 0 0 1 2 7 15 25 33
0 0 0 0 0 0 0 0 0 0 0 0 2 5 12 20 27 26 19 11 6 3 2 0 0 0 0 0 0 0 0 0 0 0 0 0 0 0 2 7 14 20 24
0 0 0 0 0 0 0 0 0 0 0 0 0 0 0 2 5 6 5 4 3 3 1 0 0 0 0 0 0 0 0 0 0 0 0 0 0 0 1 5 9 11 10
0 0 0 0 0 0 0 0 0 0 0 0 0 0 0 0 0 0 0 0 1 1 1 1 0 0 0 0 0 0 0 0 0 0 0 0 0 0 0 2 3 3 3
0 0 0 0 0 0 0 0 0 0 0 0 0 0 0 0 0 0 0 0 0 0 1 2 1 0 0 0 0 0 0 0 0 0 0 0 0 0 0 0 0 0 1
0 0 0 0 0 0 0 0 0 0 0 0 0 0 0 0 0 0 0 0 0 0 1 2 1 0 0 0 0 0 0 0 0 0 0 0 0 0 0 0 0 0 0
0 0 0 0 0 0 0 0 0 0 0 0 0 0 0 0 0 0 0 0 0 0 0 0 0 0 0 0 0 0 0 0 0 0 0 0 0 0 0 0 0 0 0
0 0 0 0 0 0 0 0 0 0 0 0 0 0 0 0 0 0 0 0 0 0 0 0 0 0 0 0 0 0 0 0 0 0 0 0 0 0 0 0 0 0 0
0 0 0 0 0 0 0 0 0 0 0 0 0 0 0 0 0 0 0 0 0 0 0 0 0 0 0 0 0 0 0 0 0 0 0 0 0 0 0 0 0 0 0
0 0 0 0 0 0 0 0 0 0 0 0 0 0 0 0 0 0 0 0 0 0 0 0 0 0 0 0 0 0 0 0 0 0 0 0 0 0 0 0 0 0 0
0 0 0 0 0 0 0 0 0 0 0 0 0 0 0 0 0 0 0 0 0 0 0 0 0 0 0 0 0 0 0 0 0 0 0 0 0 0 0 0 0 0 0
0 0 0 0 0 0 0 0 0 0 0 0 0 0 0 0 0 0 0 0 0 0 0 0 0 0 0 0 0 0 0 0 0 0 0 0 0 0 0 0 0 0 0
0 0 0 0 0 0 0 0 0 0 0 0 0 0 0 0 0 0 0 0 0 0 0 0 0 0 0 0 0 0 0 0 0 0 0 0 0 0 0 0 0 0 0
0 0 0 0 0 0 0 0 0 0 0 0 0 0 0 0 0 0 0 0 0 0 0 0 0 0 0 0 0 0 0 0 0 0 0 0 0 0 0 0 0 0 0
0 0 0 0 0 0 0 0 0 0 0 0 0 0 0 0 0 0 0 0 0 0 0 0 0 0 0 0 0 0 0 0 0 0 0 0 0 0 0 0 0 0 0
0 0 0 0 0 0 0 0 0 0 0 0 0 0 0 0 0 0 0 0 0 0 0 0 0 0 0 0 0 0 0 0 0 0 0 0 0 0 0 0 0 0 0
Wind_Speed
9 8 8 8 7 6 5 5 3 4 3 2 2 2 2 2 2 2 1 2 3 4 5 7 6 7 8 9 11 11 12 11 9 10 11 12 14 14 12 12 13 14 15
9 9 8 8 7 6 5 5 5 4 4 2 2 2 3 3 3 2 2 2 3 4 5 6 8 8 8 10 11 11 11 11 10 10 11 12 11 12 13 12 13 14 12
10 10 9 8 7 6 5 4 3 4 5 4 4 3 4 5 5 5 4 3 3 5 6 7 9 9 9 9 10 11 13 12 12 12 12 11 11 10 10 13 11 11 11
8 8 7 7 6 5 4 4 5 6 6 6 6 6 6 7 6 5 4 3 4 5 6 8 8 9 9 9 10 10 10 11 11 11 11 13 13 12 10 8 10 11 11
4 3 2 2 2 3 4 5 6 7 7 7 6 7 7 6 5 4 4 5 5 5 6 7 8 9 9 9 10 10 11 10 11 11 11 11 11 14 13 11 9 9 10
3 5 6 6 6 7 7 7 7 8 7 8 7 7 7 7 7 6 6 6 5 4 5 7 8 9 9 9 10 10 12 11 11 11 11 11 10 11 11 13 12 9 7
13 13 14 13 12 12 11 9 8 7 6 6 6 6 6 7 7 7 6 6 6 5 5 7 8 9 9 10 11 11 11 11 11 11 10 11 11 11 10 10 10 9 5
16 16 15 14 14 15 14 13 11 9 7 5 4 5 5 6 5 6 6 6 6 6 6 8 9 10 11 11 10 11 11 10 11 12 12 10 10 10 10 10 9 8 7
16 15 15 14 14 15 15 15 14 12 11 9 6 5 5 6 6 6 7 7 5 6 7 8 10 10 10 11 11 10 11 11 11 11 11 10 10 10 10 10 10 9 7
15 15 15 15 15 14 14 14 14 13 13 13 11 8 7 6 7 8 8 8 8 7 8 9 10 10 10 10 11 11 10 10 10 9 10 10 9 8 9 9 9 9 7
14 13 12 13 14 14 14 14 14 13 13 13 13 12 10 9 8 8 9 9 9 9 9 9 10 10 10 10 10 11 11 10 9 8 8 9 9 7 7 7 7 7 6
13 13 12 12 12 13 13 13 13 13 13 13 13 12 12 11 10 10 10 11 11 11 11 10 10 10 9 9 9 10 9 8 8 7 6 7 6 6 6 5 6 6 6
15 14 13 13 13 13 12 12 12 13 13 13 12 12 12 12 12 12 12 12 12 12 12 11 11 9 8 8 8 7 7 6 6 5 5 5 4 2 1 2 3 4 6
15 14 13 12 11 11 10 10 11 10 11 11 11 11 11 11 11 12 12 13 13 13 14 13 11 10 9 8 7 5 4 4 4 4 4 4 4 4 5 5 6 8 9
14 12 11 10 9 9 9 9 9 9 8 9 10 10 10 10 10 11 11 12 13 14 14 14 12 11 9 7 6 5 3 2 1 2 3 5 7 8 7 6 7 8 7
17 17 16 15 14 13 13 12 13 12 11 11 12 11 12 12 12 11 12 12 12 13 14 14 13 13 9 6 3 6 4 2 1 2 3 5 7 11 12 12 10 7 6
20 20 20 19 18 18 17 16 16 15 14 14 14 13 13 12 12 12 12 12 12 12 12 13 14 14 10 11 9 7 5 4 3 3 3 5 8 9 10 12 11 9 7
23 23 22 21 21 21 20 19 18 17 16 16 15 15 14 14 13 12 12 11 10 10 10 11 13 13 11 14 12 8 8 5 5 4 5 7 8 8 9 10 10 8 8
24 23 23 24 23 22 21 21 20 19 18 18 17 16 16 15 14 14 13 11 10 10 10 10 10 12 11 15 14 11 10 7 6 6 6 6 8 7 7 10 10 10 8
23 23 23 24 23 22 21 21 21 20 19 19 18 17 16 15 15 15 14 13 11 11 10 9 8 10 11 14 16 15 10 9 8 6 5 5 7 6 4 9 10 10 9
25 24 24 22 21 21 21 22 21 21 20 18 18 18 16 15 15 15 13 13 13 12 11 10 7 6 8 10 16 16 10 10 9 8 7 7 9 6 2 4 8 10 10
25 25 22 21 20 19 20 21 21 20 19 18 18 17 17 16 14 14 13 13 13 13 12 10 7 4 4 6 12 16 13 6 9 8 8 9 10 8 6 6 10 10 8
24 22 22 22 19 19 19 21 20 19 19 18 18 17 17 15 14 14 14 13 12 12 11 8 6 4 3 4 8 13 10 5 5 7 13 14 13 12 9 11 9 7 6
23 22 22 22 21 20 20 20 20 19 19 19 17 15 14 14 14 12 13 13 12 11 9 8 6 5 5 5 6 9 8 7 9 12 14 13 9 8 11 9 7 6 5
22 21 21 21 22 21 21 21 20 19 19 18 16 13 13 13 12 12 11 12 11 8 7 6 5 6 8 8 9 9 11 11 11 13 11 11 10 10 10 9 7 6 6
23 23 22 22 22 22 22 20 19 18 17 15 14 11 9 10 10 11 12 13 12 7 7 4 4 4 5 9 10 10 10 14 18 14 12 11 11 10 10 9 8 8 7
Wind_Direction
158 159 161 155 153 156 163 175 180 161 189 196 245 255 270 284 283 283 318 304 324 331 312 307 310 293 289 292 290 286 280 270 267 265 263 255 247 242 238 236 241 242 240
171 169 169 164 162 157 158 168 176 170 196 182 237 274 300 285 301 283 247 277 312 316 305 310 298 295 293 283 279 277 277 276 266 261 267 264 252 236 234 233 234 241 242
191 179 178 173 170 172 179 183 185 191 210 211 228 223 236 249 239 244 240 258 296 301 305 298 296 299 291 288 288 285 277 274 270 257 255 263 260 257 237 225 230 236 241
204 180 178 183 190 195 204 208 217 222 221 224 241 262 280 291 302 292 292 288 278 295 298 295 293 287 283 280 276 274 273 271 269 263 250 253 273 276 264 230 222 226 233
204 176 194 241 271 283 275 257 244 240 233 234 239 251 266 284 290 285 270 279 284 283 293 300 299 293 288 290 288 283 275 268 266 268 265 253 248 251 258 258 243 218 220
52 32 8 353 340 326 308 290 270 257 246 238 242 248 269 278 283 274 280 278 289 290 298 304 301 295 297 298 293 288 280 273 270 267 264 258 250 243 241 245 247 242 230
37 30 22 15 5 356 344 329 312 296 282 258 249 248 255 261 256 263 267 281 298 305 321 313 304 301 301 297 294 289 282 278 273 268 263 259 254 256 257 253 251 250 233
47 44 37 32 26 20 13 6 356 345 335 313 287 267 254 253 254 245 270 278 292 307 319 303 298 298 298 299 297 289 282 277 273 268 265 262 257 250 246 245 245 240 224
43 41 37 34 30 28 24 20 15 11 5 357 339 304 282 272 273 261 249 264 273 285 290 295 295 296 299 301 298 289 287 280 274 270 264 258 256 249 244 239 235 232 221
32 27 24 20 17 17 17 16 16 16 12 9 359 348 323 294 275 269 270 273 275 274 277 282 288 294 297 298 296 293 289 285 280 276 273 266 259 252 244 235 229 225 225
16 14 13 8 5 4 3 2 1 1 2 2 358 354 346 329 306 282 274 269 267 266 264 270 280 287 292 296 296 294 297 295 292 288 282 277 269 257 247 238 228 219 210
357 355 356 354 354 354 353 351 348 347 347 346 342 343 341 339 330 316 298 281 268 260 256 259 268 277 283 290 294 299 305 305 304 305 304 298 284 263 249 233 222 207 189
340 340 342 342 343 342 340 338 336 337 335 333 329 330 329 330 329 325 315 297 278 264 257 251 255 262 270 279 287 294 303 310 320 332 332 329 319 293 224 173 152 140 134
324 323 324 324 324 322 322 320 318 319 320 320 317 314 312 314 316 316 314 306 291 272 257 247 246 247 252 261 271 280 295 314 333 351 359 11 25 56 84 91 98 107 112
303 298 292 289 284 281 280 279 280 281 285 292 293 292 294 296 299 301 303 303 294 278 262 247 237 234 236 240 248 254 255 280 345 27 34 51 64 71 82 93 97 100 104
296 297 294 291 289 286 282 276 271 268 264 265 270 273 279 286 290 293 295 297 296 287 271 252 236 226 224 166 201 262 225 204 134 84 78 96 96 92 92 93 88 92 117
303 306 306 305 303 299 296 289 283 277 271 268 267 262 260 265 272 281 289 296 301 298 282 263 243 229 208 169 195 231 244 193 147 117 110 102 108 118 116 107 100 84 64
314 310 307 304 302 300 299 297 292 286 279 276 275 271 268 268 267 270 275 283 291 296 293 279 259 238 206 180 192 202 227 195 160 135 122 120 125 124 132 131 120 98 59
308 306 304 303 302 301 298 294 290 285 279 276 276 274 271 270 269 268 271 276 280 285 288 287 277 252 215 184 187 195 207 190 175 152 136 136 128 124 136 134 125 112 94
306 304 303 301 298 297 297 293 289 285 281 280 277 275 271 267 266 266 267 270 274 275 278 279 281 270 239 191 184 195 208 183 173 155 138 110 125 141 163 153 144 133 125
305 304 302 301 300 300 296 290 286 283 282 282 278 273 269 265 262 262 261 261 263 268 272 274 268 271 267 202 186 193 213 183 180 169 163 127 125 131 128 168 148 139 138
306 307 305 304 304 301 297 291 286 285 284 281 276 270 265 262 261 258 256 255 257 260 262 261 254 237 259 240 197 194 220 220 181 168 143 122 128 122 115 114 119 136 154
307 308 306 305 302 298 294 289 287 285 283 279 274 268 263 256 255 256 255 250 244 250 257 256 243 211 196 221 196 191 206 224 184 130 112 125 131 126 112 118 135 166 166
309 308 305 302 298 295 291 286 285 282 278 275 272 268 261 255 251 248 248 246 243 241 247 252 240 203 185 194 183 183 180 156 134 121 121 131 140 125 118 142 170 181 153
307 307 304 300 297 296 293 290 287 284 279 275 268 262 257 253 254 253 249 249 245 244 250 261 240 207 192 193 190 181 177 174 153 144 148 153 152 151 155 160 158 149 149
307 306 304 300 298 296 293 291 288 284 278 273 267 258 248 247 247 249 244 223 228 190 192 229 252 234 202 173 180 184 177 159 151 160 162 162 163 161 159 158 157 159 155